Location: Unspecified
(42.3650°N, 71.1030°W)
Time: 17:20:52
(UTC+00:00)

Transit 2A - Pass Details

Date: 01 July 2024
Orbit: 591 x 960 km, 66.7° (Epoch: 16 July)

Event Time Altitude Azimuth Distance (km) Brightness Sun altitude
Rises 02:03:41 0° 332° (NNW) 3,555 11.2 -14.3°
Reaches altitude 10° 02:06:14 10° 337° (NNW) 2,644 10.1 -14.6°
Maximum altitude 02:12:22 56° 55° (NE) 1,132 6.8 -15.3°
Enters shadow 02:16:30 22° 126° (SE) 1,977 7.5 -15.8°
